Location: *
(40.7765°S, 106.5327°E)
Time: 15:22:50
(UTC+00:00)

Cosmos 1606 - Pass Details

Date: 26 May 2022
Orbit: 498 x 520 km, 82.5° (Epoch: 05 July)

Event Time Altitude Azimuth Distance (km) Brightness Sun altitude
Rises 10:09:25 0° 195° (SSW) 2,692 6.3 -6.2°
Reaches altitude 10° 10:11:39 10° 201° (SSW) 1,794 5.4 -6.6°
Maximum altitude 10:15:24 44° 273° (W) 741 4.1 -7.3°
Drops below altitude 10° 10:19:06 10° 345° (NNW) 1,762 5.9 -7.9°
Sets 10:21:16 0° 352° (N) 2,638 6.7 -8.3°
